ONEWEB-0017 (45132 NORAD) Tracking and Keplerian Element Data

This shows tracking and keplerian element data for the satellite.

Feedback or suggestion? Click here.




ElementValue
Catalog45132
NameONEWEB-0017
Epoch Orbit3862
Epoch Day297.91667824
Epoch Year2020
RAAN86.3037
Inclination87.9538
Eccentricity0.0024034
Argument of Perigee140.4088
Mean Anonmoly147.6057
Mean Motion13.28561792
Decay Rate7.004E-05
L11 45132U 20008B 20297.91667824 .00007004 00000-0 15269-1 0 9993
L22 45132 87.9538 86.3037 0024034 140.4088 147.6057 13.28561792 38625

Live tracking and technical data element details for ONEWEB-0017 (NORAD 45132). ONEWEB-0017 can be tracked NOW for your location showing map with azimuth and elevation plus other details from your city location.

Track the satellite on the map from your city or location and see movement details for azimuth, elevation, latitude, longitude, range, height, and movement on the map or in text.







IsCatalogInMostPopularTable: catalog: 45132, numindb: 49
Update: records affected: 1



GetName: 45132 ONEWEB-0017

Hit Count: updated at: Sat, 24 Oct 2020 23:24:17 GMT